Find Starlink 6315

NORAD ID: 57236 Int'l Des: 2023-094 Owner: SPXS Country: US Constellation: starlink operational
LEOCIRCULAR

当前视图

正在加载3D地球...

About Starlink 6315

Starlink 6315 (NORAD 57236) is a starlink constellation satellite (v1.5) launched Jul 7, 2023 by SPXS of US. It operates in LEO, CIRCULAR orbit with a mass of 305.00 kg.

关于 Starlink 6315

正在加载描述...

即将过境

Passes for default location (London). Set your location on the main map for personalized predictions.

高度历史

Loading altitude history...

两行轨道根数

1 57236U 23094U 26167.32144106 -.00000165 00000-0 35267-5 0 9995
2 57236 43.0002 182.9429 0001461 271.0583 89.0101 15.27575928162321
Epoch: Jun 16, 2026 • Age: 6 hours

当前状态

高度 488.9 km
速度 7.62 km/s
星下点 -25.93°S, 38.14°E
发射日期 Jul 7, 2023
运行时间 2.9 years
类型 internet

技术详情

分类 Payload
质量 305.00 kg
干质量 290.00 kg
总质量 305.00 kg
长度 0.20 m
直径 2.80 m
跨度 9.00 m
形状 Box + pan
制造商 SPXS
平台类型 Starlink
阶段状态 In Orbit
所有者/国家 SPXS/US

Most Searched